HST
1 20580U 90037B   24122.81824494  .00006044  00000-0  28760-3 0  9995
2 20580  28.4685 295.6503 0001980 252.4983 107.5393 15.17061793669987
ISS (ZARYA)
1 25544U 98067A   24123.33747558  .00013317  00000-0  23406-3 0  9997
2 25544  51.6389 182.7356 0003746 132.2542 323.0307 15.50819236451430
CXO
1 25867U 99040B   24125.55221082  .00000817  00000-0  00000+0 0  9994
2 25867  40.1781 158.1648 8930883 293.2519   0.0839  0.37810193 25553